Location: Observatoire
(46.1952°N, 5.3391°E)
Time: 07:58:59
(UTC+01:00)

SR - Visible Passes

Search period start: 18 February 2026 00:00
Search period end: 28 February 2026 00:00
Orbit: 574 x 847 km, 66.7° (Epoch: 17 February)

Date Brightness Start Highest point End Pass type
(mag) Time Alt. Az. Time Alt. Az. Time Alt. Az.
18 Feb ? 03:58:15 12° E 03:58:15 12° E 03:58:51 10° ENE visible
18 Feb ? 05:37:19 64° W 05:37:37 67° NW 05:42:04 10° NNE visible
19 Feb ? 04:44:10 35° ENE 04:44:10 35° ENE 04:47:02 10° NE visible
19 Feb ? 06:23:14 19° WNW 06:24:43 23° NW 06:28:18 10° NNE visible
20 Feb ? 03:50:57 12° ENE 03:50:57 12° ENE 03:51:28 10° ENE visible
20 Feb ? 05:29:59 41° NNW 05:29:59 41° NNW 05:33:44 10° NNE visible
21 Feb ? 04:36:40 28° NE 04:36:40 28° NE 04:38:53 10° NE visible
21 Feb ? 06:15:43 16° NW 06:16:43 17° NW 06:19:45 10° N visible
22 Feb ? 03:43:18 12° NE 03:43:18 12° NE 03:43:38 10° NE visible
22 Feb ? 05:22:20 27° NNW 05:22:20 27° NNW 05:25:19 10° NNE visible
23 Feb ? 04:28:55 22° NNE 04:28:55 22° NNE 04:30:36 10° NNE visible
23 Feb ? 06:07:57 13° NW 06:08:47 13° NNW 06:11:01 10° N visible
24 Feb ? 03:35:26 11° NE 03:35:26 11° NE 03:35:34 10° NE visible
24 Feb ? 05:14:28 20° NNW 05:14:28 20° NNW 05:16:50 10° NNE visible
25 Feb ? 04:20:58 18° NNE 04:20:58 18° NNE 04:22:15 10° NNE visible
25 Feb ? 06:00:00 10° NW 06:00:54 10° NNW 06:01:50 10° NNW visible
26 Feb ? 05:06:27 16° NNW 05:06:27 16° NNW 05:08:15 10° N visible
27 Feb ? 04:12:53 15° N 04:12:53 15° N 04:13:50 10° NNE visible
